Wind_Speed
45 43 40 39 41 47 53 55 56 58 59 60 55 44 30 20 17 17 17 21 22 31 32 46 51 51 49 47 46 47 53 58 62 61 70 67 61 57 54 60 64 69 68 67 64 59 52 43 38 37 25 22 25 15
44 39 37 37 44 50 52 52 54 55 57 54 42 32 19 12 11 11 12 17 24 26 30 44 49 47 43 44 45 49 58 52 53 65 72 67 60 57 54 58 62 69 67 68 67 60 50 42 31 28 27 21 23 16
41 37 35 41 46 50 50 53 54 54 53 46 31 22 15 11 8 9 10 20 18 19 32 41 42 43 39 42 46 48 52 51 60 70 73 67 60 56 54 52 62 67 66 66 66 56 53 41 32 28 30 23 19 20
38 35 35 41 47 49 50 52 52 52 44 35 21 17 13 10 6 5 10 15 17 22 24 38 40 39 41 44 48 49 52 61 68 71 71 68 59 53 50 51 63 65 64 65 63 57 49 39 33 27 31 30 28 23
35 33 36 41 46 46 50 51 50 46 37 26 20 18 13 9 5 4 12 14 12 20 24 34 38 41 44 48 56 49 56 64 64 66 67 62 58 53 47 53 63 65 62 58 60 55 52 41 33 33 33 31 31 25
32 32 35 40 45 44 48 49 46 39 32 24 21 15 11 5 4 4 7 12 13 17 22 32 38 43 37 47 68 53 49 61 63 65 62 57 56 53 46 56 60 56 56 54 56 54 52 47 39 36 35 34 31 28
30 31 33 38 42 44 46 46 43 35 28 22 17 13 10 6 4 3 20 14 14 17 19 27 31 30 37 65 56 27 69 59 65 65 60 55 56 54 47 56 55 51 52 50 52 57 52 52 44 40 39 35 34 30
28 29 31 36 40 42 43 43 40 32 24 18 14 12 11 7 2 9 18 16 13 13 16 14 15 29 47 73 50 43 57 61 65 65 59 51 55 53 52 50 52 48 50 49 47 44 46 50 51 44 38 38 38 27
26 27 28 34 37 38 39 39 36 28 19 16 14 12 11 7 7 10 12 15 16 12 13 13 19 35 58 55 36 35 65 64 70 61 56 54 59 60 57 53 50 51 49 44 38 32 34 47 50 48 44 40 36 29
24 24 26 31 34 33 36 36 34 25 16 14 12 10 7 6 7 8 13 13 11 13 13 14 18 21 25 24 34 31 63 69 69 59 55 51 50 56 56 55 52 48 45 40 32 33 36 41 50 50 47 39 37 35
21 21 23 29 30 30 33 32 31 25 15 11 10 8 7 4 7 9 11 10 8 12 15 14 15 17 14 13 20 21 46 62 52 62 55 53 47 50 54 55 52 48 45 39 35 39 36 39 49 48 44 39 39 38
18 18 20 26 28 28 27 32 28 24 15 9 7 5 5 2 7 9 11 11 10 13 19 16 14 17 19 18 11 13 25 40 60 59 58 54 51 52 49 51 54 50 46 43 41 37 37 41 42 48 48 44 36 34
15 15 18 23 26 26 26 26 28 22 18 7 4 3 2 2 4 8 10 12 12 13 16 18 19 19 18 15 14 20 18 56 61 54 55 55 57 49 42 44 43 48 48 46 45 40 38 42 46 45 43 40 41 39
13 13 16 20 23 24 25 25 24 23 18 12 2 1 1 2 3 7 8 9 11 14 18 18 21 23 20 18 21 23 30 26 44 53 58 53 58 57 44 40 39 37 41 45 39 43 43 37 44 53 47 45 47 43
12 12 15 18 21 23 23 23 21 21 17 14 7 1 2 3 4 6 9 10 12 14 18 19 21 24 25 24 25 28 31 25 18 48 50 55 52 54 55 47 45 42 40 32 33 34 38 38 36 38 46 48 49 50
12 12 14 17 20 22 23 21 19 17 18 14 9 6 3 6 7 9 11 14 17 19 18 22 24 23 26 28 27 26 26 30 25 36 55 55 59 60 60 58 50 47 45 44 42 37 35 37 34 42 42 41 45 48
13 13 13 15 18 21 22 20 18 17 15 14 11 4 5 1 9 11 13 16 17 21 26 28 29 32 31 34 31 29 27 28 31 25 42 35 46 59 62 62 58 57 53 51 51 54 52 48 43 43 43 51 53 52
13 11 11 13 15 19 20 19 19 18 17 19 12 8 5 2 2 7 15 17 19 21 24 28 32 34 34 33 32 34 33 33 35 33 33 35 34 39 45 54 59 62 63 62 58 57 57 56 53 51 46 42 49 49
11 10 9 11 13 17 19 18 19 18 19 20 12 8 4 4 6 5 5 12 22 24 26 28 31 34 34 34 36 39 40 40 40 40 39 38 37 37 38 41 46 53 61 64 66 67 69 69 64 59 56 53 51 51
10 9 7 9 12 15 18 18 17 16 18 18 11 6 7 9 9 10 9 10 11 16 29 28 21 21 28 35 38 42 45 44 44 43 43 42 39 39 40 40 41 44 47 50 54 57 60 62 62 59 58 58 56 54
9 8 8 9 10 14 17 18 14 11 12 15 12 12 12 10 7 4 8 10 10 12 13 22 33 35 37 38 42 44 44 46 46 46 45 43 42 42 42 42 42 43 44 45 46 48 49 49 50 51 52 52 52 50
8 7 7 8 10 14 17 14 9 11 13 16 14 14 14 11 4 3 4 3 5 10 13 14 19 35 38 37 40 42 42 42 43 45 45 42 42 43 43 42 42 43 44 46 46 47 47 48 49 49 49 51 53 54
6 5 6 7 10 13 13 8 8 10 13 12 13 14 10 10 9 6 2 3 2 5 9 11 18 25 31 34 31 33 33 32 33 35 37 38 38 37 39 40 37 39 40 41 44 46 47 48 49 49 49 48 47 47
6 4 4 6 9 7 7 6 6 7 11 12 17 16 11 10 10 10 3 5 4 8 8 2 12 17 32 33 29 27 26 29 29 29 29 30 31 33 35 35 35 35 36 36 35 35 35 35 36 37 38 39 40 40
5 4 4 6 8 5 5 4 3 5 13 10 15 15 13 13 16 18 14 6 12 14 18 8 12 12 19 31 27 24 27 25 25 26 25 24 26 26 27 28 27 27 29 32 33 31 29 30 30 32 34 33 35 33
6 4 1 4 6 4 2 3 0 4 8 12 17 21 21 18 19 23 22 12 16 18 24 25 15 12 12 20 29 30 26 25 23 21 20 22 22 23 24 24 25 25 25 26 28 29 29 31 32 32 31 34 33 34
7 4 2 3 5 2 5 4 3 5 8 10 15 15 16 19 23 23 21 15 15 20 14 22 20 18 15 13 17 22 24 25 24 24 23 23 24 24 24 26 27 26 26 27 28 29 27 25 25 26 30 28 38 46
8 5 4 5 4 3 6 6 4 1 4 7 10 12 12 13 16 17 12 12 11 12 13 15 17 16 14 14 14 13 15 19 20 20 22 23 24 23 23 19 20 19 20 21 20 22 20 19 17 16 20 23 17 22
8 6 4 2 3 4 5 6 4 2 5 6 9 10 12 13 12 13 13 10 12 12 10 8 5 7 10 12 13 13 15 13 13 14 15 11 14 16 15 22 23 17 14 16 17 15 12 14 14 14 17 14 13 17
8 5 4 3 2 4 5 6 3 2 2 5 10 11 10 11 11 12 13 13 15 17 19 20 19 14 9 12 14 12 14 11 14 13 13 11 10 12 19 18 19 18 18 18 18 16 14 15 20 17 14 13 13 13
10 7 2 2 5 7 5 5 4 4 2 3 8 9 11 13 14 16 18 17 16 16 18 19 21 22 17 15 11 11 11 16 13 11 10 7 6 6 11 14 14 8 1 3 11 14 16 16 14 13 10 10 11 11
10 7 5 4 6 6 5 9 10 9 7 8 10 10 12 12 13 14 15 14 13 14 16 16 17 18 19 18 17 16 16 16 16 15 13 10 8 8 8 8 8 7 6 5 3 3 4 2 5 10 13 13 13 14
11 7 3 6 9 7 7 7 9 10 10 10 13 13 11 10 10 9 8 10 10 9 9 10 11 11 11 10 10 9 8 8 7 8 7 5 3 3 4 5 6 6 5 4 4 5 6 8 10 12 14 16 17 19
Wind_Direction
327 326 324 324 324 323 323 325 325 323 322 322 325 322 314 295 276 263 250 226 219 217 216 205 197 199 202 202 206 203 204 208 207 203 204 206 207 206 208 202 202 202 202 205 210 207 215 209 210 213 205 199 199 194
327 324 324 323 324 325 327 328 327 327 326 329 329 330 325 309 294 268 251 209 220 215 206 201 191 197 195 198 199 199 204 202 201 199 201 201 204 205 208 202 201 201 207 207 209 207 211 206 205 217 208 194 186 187
326 324 323 323 327 328 330 332 332 331 331 334 332 332 331 322 296 252 255 202 214 206 198 198 192 190 192 190 194 197 201 200 193 197 199 200 203 206 209 207 199 205 207 210 215 210 210 213 207 209 207 201 198 188
324 323 321 327 330 331 334 335 335 334 335 339 337 337 331 324 304 293 211 227 187 197 198 194 186 185 187 190 194 194 191 192 190 194 199 200 201 205 208 209 200 204 206 211 214 215 211 209 200 199 207 203 195 210
321 322 322 329 333 334 336 338 339 337 340 341 337 337 341 344 357 177 214 170 165 185 191 191 183 185 193 191 184 185 188 188 188 191 196 195 200 203 208 209 202 199 203 209 212 214 212 213 205 202 209 211 204 199
321 321 327 332 336 337 337 341 342 341 344 340 339 343 357 30 28 267 169 130 152 170 184 187 188 203 204 199 181 181 187 186 187 191 189 192 199 202 199 208 198 202 203 207 211 214 213 211 214 208 214 213 212 213
321 322 331 334 336 339 340 343 345 346 349 348 349 1 13 15 310 172 158 115 151 175 179 186 190 207 203 185 184 208 195 178 186 187 188 189 194 200 199 205 202 204 203 208 213 216 215 213 213 218 216 214 218 222
321 325 333 337 338 343 344 346 350 352 357 4 6 10 11 20 86 140 156 167 165 181 191 191 198 192 199 181 198 156 169 178 182 184 185 186 187 191 196 199 202 203 208 213 216 221 220 211 214 217 216 215 223 213
320 327 334 337 339 345 348 350 356 358 6 14 21 16 21 55 128 141 146 155 172 185 191 205 194 199 196 193 189 159 177 180 184 181 184 184 184 189 195 196 199 203 209 216 215 219 221 207 210 216 221 227 231 222
319 328 333 337 342 347 351 356 1 1 9 21 24 22 36 92 141 144 140 145 168 179 192 193 196 203 212 222 207 162 181 185 183 182 185 183 178 187 195 199 203 206 210 217 205 213 218 210 204 212 226 230 233 237
318 326 332 337 345 351 354 357 1 3 5 15 23 15 27 111 160 174 169 168 170 182 170 177 189 198 205 218 221 222 166 181 184 187 187 187 180 182 190 194 199 202 207 214 211 200 203 210 209 212 215 219 226 233
316 325 329 337 344 351 351 359 1 4 5 2 16 17 11 168 178 188 187 186 188 179 172 167 179 202 208 217 210 182 181 174 182 191 190 184 186 192 187 193 194 195 206 207 213 211 208 205 211 218 221 226 225 229
313 318 327 338 341 348 350 353 357 3 4 358 357 27 42 355 201 209 211 200 195 176 177 175 182 193 197 211 202 211 195 185 191 190 196 193 188 192 195 190 194 201 208 212 218 224 221 213 207 209 213 211 212 211
308 309 322 337 338 344 349 354 355 359 10 8 341 284 248 168 188 211 224 222 203 190 182 185 185 187 188 195 204 213 220 206 206 212 205 199 203 202 197 195 199 202 210 217 221 224 228 225 218 214 215 223 225 220
301 298 315 332 335 341 347 352 357 0 4 20 24 206 245 217 198 203 214 212 214 203 198 198 193 194 192 197 197 218 218 217 219 207 208 209 209 215 212 207 202 204 209 211 214 219 221 223 225 226 220 222 234 239
295 291 304 325 332 340 347 350 352 353 1 9 32 41 238 237 220 202 210 211 205 211 212 202 200 203 205 204 201 202 212 226 229 215 204 210 212 216 220 220 214 212 214 214 219 226 227 225 228 230 237 235 229 228
287 290 296 316 325 336 347 350 350 347 343 355 2 2 40 321 238 227 219 220 221 214 209 210 206 203 204 206 202 204 204 212 216 216 201 204 216 219 222 226 224 224 227 229 236 242 238 235 242 236 234 228 231 237
275 293 299 310 318 333 345 350 348 347 344 349 354 352 353 29 42 230 235 232 229 227 228 216 208 211 208 204 204 204 207 208 209 210 212 212 214 214 219 224 227 229 230 232 233 237 243 247 247 239 234 245 246 236
266 286 296 304 315 331 342 346 343 345 345 352 3 360 327 320 323 307 279 240 234 233 232 231 226 208 209 210 208 209 209 209 209 212 216 218 218 218 219 220 224 230 236 237 235 237 244 249 251 248 247 248 248 252
264 282 295 310 314 327 337 337 337 342 348 1 15 23 6 330 302 277 268 261 251 239 235 233 233 226 219 215 213 211 211 212 210 212 213 215 217 218 220 221 222 224 229 233 236 238 241 244 249 246 245 249 253 256
256 270 296 307 311 325 335 337 331 336 344 358 9 352 340 341 344 289 255 264 252 235 236 218 211 212 215 216 212 213 212 213 211 215 217 216 218 219 220 221 223 225 227 230 233 237 240 243 245 248 250 253 256 259
244 263 288 306 313 330 336 333 334 340 337 340 344 340 343 360 352 28 43 345 293 259 243 235 230 228 220 212 210 209 210 211 212 217 222 222 223 224 225 226 228 229 230 233 236 239 242 245 248 250 253 255 257 260
231 249 284 306 329 335 336 346 360 349 358 2 346 360 16 42 49 45 46 21 97 38 339 244 218 212 214 219 213 211 212 211 215 221 224 225 226 227 231 232 233 236 237 238 239 241 243 246 248 251 254 256 259 261
226 246 278 322 343 349 347 21 8 360 15 18 15 31 56 36 12 18 8 56 52 9 20 86 201 201 203 208 210 209 208 206 208 214 218 218 221 224 228 230 228 229 233 237 239 241 243 245 246 248 249 251 255 255
202 227 303 348 1 12 24 71 28 43 37 24 30 52 48 42 45 41 46 55 37 33 40 66 171 164 187 203 200 198 201 198 201 208 211 211 211 212 218 224 224 223 226 230 234 239 241 240 240 240 241 244 248 255
190 216 321 360 8 28 91 136 290 348 50 56 70 58 57 65 48 51 46 89 65 56 49 55 94 124 150 184 195 199 196 196 200 202 203 206 204 203 205 210 213 218 222 222 224 228 229 229 234 235 240 246 254 254
182 164 92 31 45 101 144 149 91 71 70 70 56 51 55 59 60 63 69 83 79 59 65 62 67 78 96 127 162 180 186 188 191 194 198 198 198 199 202 204 207 212 216 218 220 223 225 223 225 240 255 233 220 228
171 140 116 55 63 145 159 151 157 53 45 83 60 48 60 63 62 57 77 69 61 58 93 102 53 70 87 108 122 139 164 178 188 195 197 197 202 204 207 208 219 219 210 213 215 211 217 230 240 271 211 203 206 218
150 143 147 106 66 150 165 157 163 224 15 61 69 72 75 71 58 49 70 69 55 60 91 101 148 133 90 100 118 128 139 146 160 162 164 165 192 187 196 193 206 230 228 224 222 229 237 226 243 243 217 229 234 215
147 139 129 110 122 144 151 154 124 186 352 55 81 86 83 76 74 77 77 80 80 77 77 71 59 62 105 115 136 123 127 137 153 159 175 176 129 152 170 195 212 234 234 232 230 228 235 235 233 247 243 237 232 231
147 126 136 85 147 153 129 150 121 113 174 105 119 110 100 101 88 83 86 87 92 96 86 78 72 66 95 143 135 138 121 123 128 142 168 177 190 190 239 249 211 160 148 210 212 204 196 210 210 217 207 211 219 224
150 147 93 101 151 159 145 125 118 111 113 133 132 125 124 116 108 101 93 88 85 92 91 89 85 81 79 80 83 84 87 95 100 98 95 95 101 130 96 110 125 157 169 144 105 151 193 188 203 217 232 239 246 254
137 130 119 140 151 128 137 141 132 123 126 123 123 117 117 119 107 102 99 95 99 95 83 76 73 71 74 76 80 84 86 89 92 93 100 110 126 153 166 176 184 194 206 216 227 237 245 250 258 265 269 272 276 278
Height
5737 5728 5720 5711 5703 5694 5684 5672 5659 5646 5631 5616 5601 5588 5579 5575 5576 5578 5582 5586 5591 5597 5604 5614 5624 5641 5656 5670 5681 5693 5700 5708 5723 5735 5746 5761 5772 5783 5791 5803 5811 5819 5827 5832 5844 5850 5859 5868 5875 5878 5891 5897 5901 5905
5728 5720 5712 5703 5694 5685 5673 5660 5646 5633 5620 5605 5593 5583 5576 5574 5574 5575 5578 5582 5587 5593 5601 5609 5621 5635 5651 5662 5674 5683 5692 5704 5713 5726 5737 5751 5764 5775 5786 5795 5805 5814 5820 5829 5837 5846 5857 5866 5875 5882 5886 5894 5897 5902
5720 5712 5705 5697 5687 5676 5664 5651 5638 5625 5611 5598 5589 5582 5577 5574 5573 5574 5575 5581 5585 5591 5598 5608 5618 5631 5644 5656 5666 5678 5686 5696 5707 5720 5733 5746 5757 5770 5779 5789 5801 5808 5818 5827 5838 5845 5853 5864 5872 5878 5884 5889 5894 5898
5713 5705 5698 5690 5680 5669 5656 5644 5631 5618 5606 5595 5587 5582 5577 5574 5573 5574 5576 5580 5585 5590 5598 5608 5618 5630 5641 5652 5661 5671 5681 5690 5702 5716 5728 5741 5755 5766 5775 5785 5794 5805 5815 5823 5832 5842 5851 5859 5867 5875 5880 5884 5889 5895
5706 5699 5691 5684 5674 5663 5651 5638 5625 5613 5603 5594 5587 5582 5578 5575 5573 5575 5579 5581 5585 5592 5599 5610 5619 5628 5636 5646 5657 5670 5679 5688 5700 5712 5724 5739 5751 5763 5772 5781 5789 5800 5810 5818 5827 5837 5846 5856 5864 5870 5874 5880 5885 5890
5700 5693 5686 5679 5669 5658 5647 5634 5621 5610 5601 5594 5588 5583 5580 5577 5577 5579 5581 5585 5589 5594 5602 5611 5620 5624 5636 5643 5653 5666 5676 5684 5698 5709 5723 5736 5748 5760 5769 5775 5786 5796 5806 5814 5822 5832 5841 5851 5858 5864 5871 5877 5882 5886
5695 5688 5681 5673 5664 5655 5644 5631 5619 5609 5601 5594 5589 5585 5582 5581 5579 5580 5585 5590 5593 5598 5605 5614 5621 5623 5634 5642 5652 5657 5666 5684 5697 5710 5723 5733 5745 5754 5765 5773 5783 5792 5802 5810 5817 5826 5836 5845 5854 5860 5865 5872 5876 5881
5690 5684 5677 5669 5661 5652 5641 5630 5618 5609 5603 5597 5592 5588 5585 5583 5581 5584 5589 5593 5598 5601 5606 5612 5617 5627 5630 5638 5641 5657 5670 5683 5696 5708 5720 5728 5739 5749 5758 5768 5778 5788 5797 5805 5813 5821 5829 5840 5848 5854 5860 5866 5869 5876
5685 5680 5674 5666 5658 5651 5640 5630 5620 5612 5606 5600 5596 5593 5590 5588 5587 5590 5594 5597 5601 5607 5610 5615 5620 5627 5633 5640 5648 5657 5672 5683 5693 5705 5715 5724 5731 5739 5751 5762 5773 5782 5792 5801 5810 5817 5822 5832 5843 5849 5855 5859 5863 5871
5680 5676 5671 5664 5656 5649 5641 5632 5622 5615 5610 5605 5601 5599 5597 5595 5594 5594 5598 5600 5604 5608 5613 5619 5625 5630 5635 5640 5647 5658 5671 5682 5691 5702 5711 5715 5724 5737 5749 5759 5770 5780 5788 5797 5806 5812 5818 5826 5836 5844 5851 5857 5863 5867
5676 5672 5668 5661 5655 5648 5641 5633 5624 5618 5614 5609 5605 5603 5601 5600 5600 5600 5602 5605 5608 5614 5618 5623 5628 5632 5639 5645 5650 5656 5665 5681 5688 5695 5703 5713 5722 5734 5745 5755 5766 5776 5785 5792 5800 5807 5814 5821 5830 5837 5842 5849 5855 5859
5671 5668 5664 5659 5653 5647 5642 5635 5627 5621 5615 5612 5609 5607 5605 5605 5604 5604 5606 5609 5612 5616 5620 5624 5629 5636 5645 5650 5656 5661 5663 5673 5681 5692 5701 5711 5722 5731 5739 5751 5762 5772 5780 5787 5795 5802 5810 5816 5822 5829 5835 5841 5846 5851
5667 5664 5661 5657 5651 5646 5641 5636 5629 5622 5617 5613 5611 5609 5608 5608 5608 5608 5608 5611 5612 5617 5622 5626 5632 5638 5644 5649 5656 5663 5665 5676 5683 5689 5699 5710 5720 5730 5737 5747 5758 5767 5775 5781 5789 5796 5802 5809 5815 5821 5826 5831 5837 5842
5663 5661 5658 5655 5650 5645 5640 5635 5629 5624 5619 5615 5612 5611 5611 5610 5610 5610 5610 5611 5614 5618 5625 5630 5635 5639 5645 5652 5657 5664 5672 5677 5682 5688 5698 5707 5718 5728 5737 5745 5754 5762 5770 5777 5783 5789 5795 5801 5808 5815 5820 5825 5828 5834
5660 5657 5655 5652 5648 5644 5639 5635 5630 5626 5621 5618 5614 5612 5612 5611 5612 5612 5612 5611 5612 5617 5623 5629 5636 5641 5645 5651 5656 5663 5670 5675 5683 5692 5699 5707 5716 5725 5734 5743 5749 5757 5766 5772 5778 5783 5789 5794 5800 5806 5813 5819 5821 5826
5656 5655 5652 5650 5646 5642 5638 5634 5630 5626 5622 5619 5616 5614 5612 5612 5612 5613 5614 5615 5616 5619 5622 5627 5632 5637 5643 5648 5654 5660 5669 5677 5685 5689 5696 5702 5710 5719 5728 5736 5744 5752 5759 5766 5772 5778 5783 5790 5796 5800 5805 5810 5815 5819
5652 5651 5649 5647 5644 5640 5636 5633 5629 5626 5622 5619 5617 5615 5613 5611 5611 5612 5613 5614 5615 5617 5621 5624 5629 5634 5641 5647 5653 5658 5665 5672 5681 5686 5693 5699 5704 5711 5720 5728 5737 5745 5752 5758 5763 5768 5776 5783 5788 5791 5797 5803 5805 5808
5648 5648 5646 5645 5642 5638 5635 5632 5628 5625 5621 5618 5616 5614 5612 5611 5610 5609 5611 5613 5614 5614 5615 5620 5626 5629 5635 5641 5648 5653 5659 5665 5673 5680 5689 5696 5701 5707 5713 5719 5727 5735 5743 5749 5754 5760 5764 5770 5778 5784 5788 5793 5795 5800
5645 5644 5643 5642 5639 5636 5633 5631 5628 5624 5621 5617 5615 5613 5612 5611 5610 5609 5608 5609 5610 5612 5612 5612 5614 5626 5632 5636 5641 5647 5654 5659 5665 5674 5683 5690 5696 5702 5707 5713 5719 5725 5730 5736 5743 5750 5755 5760 5765 5770 5776 5780 5783 5788
5642 5641 5641 5640 5637 5635 5632 5630 5627 5624 5621 5618 5614 5613 5611 5609 5608 5606 5605 5605 5605 5605 5608 5611 5618 5621 5625 5630 5635 5641 5647 5653 5659 5666 5674 5681 5688 5695 5701 5707 5713 5718 5722 5726 5731 5737 5743 5748 5752 5757 5764 5768 5772 5775
5639 5638 5638 5637 5635 5633 5631 5628 5625 5624 5622 5618 5615 5613 5610 5607 5604 5602 5601 5601 5601 5602 5602 5604 5608 5611 5614 5620 5627 5634 5640 5645 5651 5660 5669 5675 5682 5689 5695 5700 5705 5710 5715 5719 5723 5727 5732 5737 5742 5746 5750 5754 5757 5760
5636 5636 5636 5635 5633 5631 5629 5627 5625 5623 5621 5618 5614 5611 5608 5605 5602 5601 5601 5599 5598 5597 5597 5598 5599 5604 5609 5614 5619 5626 5632 5640 5646 5655 5661 5668 5675 5679 5685 5691 5697 5702 5707 5711 5716 5720 5724 5728 5732 5736 5739 5742 5745 5747
5633 5635 5635 5634 5632 5630 5630 5627 5626 5624 5621 5618 5614 5610 5607 5605 5604 5602 5600 5599 5598 5596 5594 5591 5591 5595 5603 5611 5618 5625 5631 5636 5643 5649 5654 5660 5667 5673 5678 5684 5689 5693 5698 5702 5707 5712 5717 5720 5723 5726 5728 5730 5732 5734
5632 5633 5633 5632 5631 5630 5629 5628 5627 5625 5622 5618 5614 5612 5610 5609 5606 5603 5601 5599 5598 5597 5591 5589 5589 5591 5596 5604 5614 5622 5627 5633 5639 5645 5650 5656 5661 5666 5671 5676 5682 5686 5689 5693 5698 5702 5706 5709 5712 5715 5717 5720 5721 5723
5632 5633 5632 5631 5630 5630 5629 5628 5628 5626 5624 5621 5618 5616 5614 5612 5609 5607 5603 5602 5602 5598 5593 5588 5590 5593 5597 5604 5611 5618 5624 5631 5636 5640 5645 5651 5656 5662 5667 5671 5675 5679 5683 5686 5690 5694 5697 5699 5702 5704 5706 5708 5710 5711
5630 5632 5631 5631 5631 5630 5629 5629 5629 5627 5625 5624 5623 5620 5618 5616 5615 5611 5606 5606 5606 5604 5601 5598 5597 5599 5601 5605 5611 5617 5623 5629 5633 5638 5643 5646 5651 5656 5661 5665 5669 5673 5677 5680 5683 5686 5688 5690 5693 5696 5697 5699 5701 5700
5630 5631 5631 5631 5631 5630 5630 5631 5631 5630 5628 5626 5626 5626 5624 5622 5619 5616 5616 5615 5614 5612 5608 5608 5607 5607 5608 5609 5613 5618 5623 5628 5633 5637 5640 5643 5648 5652 5656 5659 5663 5667 5670 5674 5677 5679 5681 5684 5687 5689 5689 5687 5690 5691
5629 5630 5631 5632 5631 5632 5632 5632 5633 5632 5632 5631 5631 5630 5628 5627 5625 5624 5622 5621 5620 5619 5616 5614 5617 5617 5618 5618 5620 5623 5627 5630 5633 5637 5640 5644 5647 5650 5654 5658 5662 5664 5665 5668 5670 5673 5676 5678 5679 5679 5680 5679 5679 5682
5629 5630 5631 5632 5633 5633 5633 5635 5635 5635 5635 5634 5634 5633 5632 5631 5630 5628 5627 5627 5625 5624 5623 5623 5624 5625 5626 5627 5628 5630 5632 5634 5637 5640 5643 5646 5647 5652 5654 5657 5659 5660 5663 5666 5668 5669 5671 5673 5673 5674 5675 5676 5678 5680
5629 5631 5632 5632 5633 5634 5635 5636 5636 5637 5637 5637 5637 5637 5636 5635 5635 5633 5633 5632 5631 5631 5630 5630 5629 5628 5629 5632 5634 5635 5637 5639 5641 5644 5645 5648 5648 5650 5656 5658 5659 5661 5662 5664 5665 5666 5667 5668 5670 5672 5673 5674 5676 5677
5630 5631 5632 5633 5633 5635 5637 5637 5637 5638 5639 5640 5640 5640 5640 5640 5640 5639 5638 5638 5638 5638 5637 5637 5637 5637 5636 5638 5640 5642 5643 5645 5647 5648 5649 5650 5651 5653 5654 5655 5654 5656 5658 5659 5660 5662 5664 5666 5668 5669 5671 5673 5674 5675
5631 5633 5634 5634 5635 5637 5638 5639 5639 5640 5641 5642 5643 5643 5644 5644 5644 5644 5644 5644 5644 5643 5643 5643 5643 5643 5644 5646 5647 5648 5648 5649 5650 5651 5652 5653 5655 5656 5657 5657 5657 5659 5660 5661 5661 5662 5663 5665 5668 5670 5671 5671 5672 5672
5632 5634 5635 5636 5637 5638 5639 5640 5641 5642 5644 5645 5645 5646 5647 5648 5648 5649 5649 5649 5649 5649 5649 5649 5650 5650 5651 5651 5651 5652 5653 5654 5655 5655 5656 5656 5657 5658 5659 5660 5661 5662 5662 5663 5663 5663 5663 5664 5664 5665 5665 5665 5665 5665